Retour au catalogue

FENGYUN 1C DEB

ActifSSO
NORAD 30371·DEBRIS·🇨🇳 China

Lancé May 10, 1999 depuis Taiyuan Satellite Launch Center

Loading…

Prochains Passages (prochaines 24 heures)

TLE

FraisSource: Space-Track

Époque: Sep 14, 2026, 02:26 UTC

1 30371U 99025ACJ 26257.10207677  .00001436  00000-0  55810-3 0  9997
2 30371  98.5522 301.0054 0006849 228.1022 159.1420 14.31380140 18392

Suivez FENGYUN 1C DEB en temps réel avec AllMySat

Download on the App Store